Theta_e
316 316 317 317 318 318 318 319 320 320 320 321 322 322 322 322 323 323 324 324 324 325 325 326 327 326 327 327 328 328 326 316 320 312 313 317 325 333 338 340 340 340 337 318 311 307 302 303 304 304 303 305 305 305 307 309 306 302 296 288 287 289 288 292 293 294 294 294 295 298 297 295 296 299 301 301 299 298 298 300 301 303 302 302 304 304 306 307
315 316 316 316 317 317 318 318 319 319 320 321 321 321 322 322 322 323 323 324 324 324 325 326 326 327 326 326 327 327 321 318 313 310 309 322 331 339 340 338 339 338 331 310 306 303 302 301 301 301 301 300 307 303 308 306 305 295 292 288 289 290 293 294 294 295 294 295 296 298 297 296 297 297 299 297 295 297 296 298 300 300 301 303 303 304 305 306
314 315 315 316 316 316 317 318 318 319 320 320 320 321 321 321 322 322 323 323 324 324 325 326 326 326 327 327 326 325 320 321 316 304 310 332 337 339 336 336 333 333 314 309 308 306 304 302 302 302 301 299 301 303 303 304 302 300 292 288 291 294 295 296 296 297 297 296 297 297 299 296 298 298 301 297 295 295 295 296 298 298 298 300 301 303 303 305
314 314 315 315 316 316 317 317 318 319 320 320 320 320 320 321 321 322 323 323 324 324 324 325 326 326 326 326 327 320 319 312 305 308 324 335 338 338 335 334 334 325 319 314 310 306 305 305 303 303 303 299 299 301 298 300 297 299 292 291 293 294 294 296 297 298 297 297 297 297 297 296 298 298 298 296 296 295 297 298 296 298 299 300 301 302 303 303
315 314 314 315 315 316 316 317 318 319 319 319 320 320 320 321 321 322 322 323 323 324 324 325 326 326 326 326 325 317 316 298 303 317 322 334 336 335 333 334 331 319 312 309 308 307 306 305 303 303 301 297 300 297 296 299 301 297 295 294 295 294 294 298 298 298 297 296 296 296 297 297 300 300 297 297 295 291 296 299 298 299 299 300 301 301 302 302
315 314 314 314 315 315 315 316 317 318 319 319 320 320 320 321 321 322 322 323 323 323 324 325 325 325 326 325 316 317 309 291 305 314 332 333 333 333 334 335 331 318 311 309 307 305 305 303 302 299 298 296 297 293 296 299 300 293 295 297 296 297 296 298 299 298 297 298 297 296 298 299 297 297 297 296 296 296 300 299 299 300 300 301 301 301 301 301
314 314 315 314 314 314 315 315 316 317 318 319 320 320 320 321 321 321 321 322 323 323 324 324 325 325 325 324 314 319 306 305 317 319 325 333 333 334 331 332 326 312 310 306 306 306 303 302 301 300 299 295 296 295 299 299 299 295 294 296 298 297 298 299 299 297 296 297 298 298 299 299 297 297 298 297 298 299 299 300 300 300 300 301 300 300 300 300
314 314 314 314 313 314 314 315 315 316 318 319 319 320 320 321 321 321 321 322 323 323 324 324 324 325 324 316 317 307 307 306 315 321 326 328 328 325 321 315 312 311 308 307 307 305 304 301 300 301 296 294 298 297 299 297 297 295 296 297 298 298 299 297 297 296 297 297 296 298 298 296 296 296 298 297 297 298 299 300 299 299 299 299 299 299 299 299
315 314 314 314 314 313 313 314 314 316 317 318 319 320 320 321 321 321 321 322 323 323 323 324 324 324 324 316 313 301 302 317 321 320 322 320 315 311 313 313 310 308 307 307 306 307 305 301 300 301 297 297 299 297 297 296 293 298 297 297 297 297 299 296 297 297 297 298 298 298 296 296 297 299 296 297 297 299 299 299 299 299 298 298 298 298 298 298
315 315 315 315 315 314 314 314 314 315 316 318 319 319 320 320 320 321 321 322 322 323 323 324 325 324 317 318 304 298 308 318 323 321 316 314 312 312 310 312 309 309 308 306 306 304 303 303 304 305 304 300 300 297 297 295 294 297 296 297 297 297 296 298 298 297 297 298 296 296 295 295 297 297 291 297 298 298 298 298 298 298 297 298 298 298 298 298
316 316 316 316 316 316 316 314 315 316 316 317 318 318 319 319 320 321 321 322 322 323 324 324 324 319 313 311 301 298 316 321 318 313 313 313 311 312 310 311 310 310 307 306 306 306 306 306 305 306 301 297 299 297 296 297 298 297 297 296 296 296 296 296 296 297 296 297 296 297 295 296 295 297 293 296 298 298 298 297 297 297 297 297 297 297 297 297
316 317 317 317 317 317 317 317 316 316 316 317 317 318 318 319 320 321 321 322 322 323 324 324 323 317 316 309 300 302 317 318 316 312 316 314 311 313 313 311 310 311 307 306 309 310 309 309 305 301 296 302 295 297 297 298 298 297 297 294 293 295 297 296 296 297 297 297 296 297 296 293 294 293 296 298 298 298 298 297 296 296 296 296 296 296 296 296
317 317 317 318 318 318 318 317 316 316 316 316 317 318 318 319 320 321 321 321 322 324 325 324 321 318 311 301 305 312 311 315 313 314 314 312 311 311 312 313 313 309 309 308 308 309 309 306 303 300 303 299 298 295 298 300 298 299 297 293 294 292 293 297 297 297 297 298 296 298 288 290 292 294 295 297 297 297 296 295 296 296 296 295 295 295 295 295
318 317 318 319 319 319 318 317 316 316 316 316 317 317 318 319 320 321 321 321 323 324 324 324 315 314 307 302 311 313 315 317 315 314 314 314 312 311 311 312 312 310 312 308 309 307 309 306 307 303 305 299 298 303 299 297 298 294 295 294 290 289 288 295 296 295 296 296 295 298 289 289 291 294 296 297 297 297 296 295 295 296 296 295 295 294 294 294
318 318 318 319 320 319 319 318 317 316 316 317 317 317 318 318 320 321 322 321 322 324 324 322 313 313 301 301 314 316 329 317 313 312 313 312 310 310 310 310 309 308 307 309 308 309 307 307 305 300 297 300 301 298 293 294 294 293 291 285 289 289 288 294 296 297 295 296 296 296 288 291 293 293 295 296 296 296 295 295 295 296 295 296 295 294 294 294
318 318 319 319 320 320 318 318 317 316 317 317 317 317 319 320 321 322 322 322 323 324 318 318 317 307 298 298 310 325 315 308 310 312 311 316 312 310 308 308 310 308 307 306 307 307 305 307 300 299 298 300 296 290 290 290 290 292 291 285 289 288 289 292 297 297 296 294 296 296 288 291 293 293 295 295 297 296 295 295 295 296 296 296 295 294 294 294
318 318 319 319 320 320 319 318 317 316 316 316 317 318 319 321 322 321 322 322 320 320 314 313 309 309 297 307 314 311 307 310 313 314 312 312 313 309 307 307 306 305 305 306 307 305 303 303 301 300 301 293 292 292 287 284 286 288 290 289 289 290 289 288 292 294 296 295 291 292 291 291 293 293 294 295 297 295 294 295 296 296 296 296 294 294 294 293
318 319 319 319 320 320 319 318 317 317 316 316 317 318 318 321 322 320 321 320 316 315 318 320 312 300 298 305 300 303 310 309 313 313 312 310 310 308 306 304 305 303 305 303 304 301 303 298 299 293 294 296 295 291 286 284 288 285 289 288 289 291 291 291 289 293 295 295 292 291 290 292 294 293 293 296 296 295 294 295 295 295 295 294 294 294 294 292
319 319 319 320 321 320 319 318 318 318 317 318 319 321 322 321 315 314 315 315 309 300 297 300 302 290 289 300 306 309 312 313 312 311 309 310 312 310 308 306 304 301 299 298 298 300 299 296 295 292 290 291 292 293 291 291 292 292 290 289 288 291 289 292 294 295 296 293 292 291 291 292 294 294 293 294 295 295 295 293 294 294 294 294 294 293 293 292
319 320 320 321 321 321 319 318 318 318 318 316 315 315 309 307 307 305 308 311 306 301 300 303 305 303 304 305 306 309 312 311 307 309 310 312 309 307 306 305 304 303 297 295 297 297 298 291 289 288 291 294 294 295 295 296 296 294 293 292 290 290 290 293 295 295 294 293 291 292 292 291 293 294 295 295 294 293 293 292 294 294 294 294 293 293 292 292
319 319 320 321 321 320 319 319 319 318 318 315 314 310 302 303 294 294 303 306 308 308 305 304 306 303 303 306 306 306 304 305 307 307 309 313 307 305 301 302 298 295 295 297 296 298 299 291 290 294 295 296 297 297 296 295 294 294 292 291 289 291 290 293 296 294 294 293 289 291 291 292 293 295 296 294 293 293 294 293 293 293 294 293 293 292 292 292
319 319 319 320 320 320 320 319 319 319 319 316 314 309 309 307 308 308 306 300 304 309 309 307 306 304 308 306 307 308 307 301 304 307 311 310 304 301 299 299 295 294 296 297 294 293 291 290 293 296 298 298 298 297 295 295 294 293 291 288 290 288 292 293 294 293 295 295 289 289 290 291 294 296 296 293 294 294 295 294 295 294 293 293 293 292 291 291
318 319 319 320 320 321 320 320 319 319 312 312 310 311 308 311 312 312 309 300 300 306 307 306 305 304 304 307 308 308 303 298 299 304 306 308 302 301 299 296 295 295 297 296 292 289 289 290 295 298 298 297 297 296 295 294 293 291 290 289 287 288 291 286 291 293 293 293 289 289 291 292 295 296 297 293 294 292 294 295 294 295 294 293 293 292 291 291
318 318 319 320 321 321 321 320 320 315 310 310 311 310 312 313 312 312 306 296 295 300 306 307 307 304 303 304 308 306 302 302 302 302 308 305 301 301 299 298 296 295 294 296 295 293 292 295 299 298 297 297 296 295 294 292 292 290 292 289 289 290 291 292 291 293 293 293 293 290 289 289 292 293 292 291 292 293 293 292 292 293 293 293 293 292 293 292
318 319 319 320 320 321 320 319 313 310 311 312 310 314 315 314 314 312 303 296 295 297 308 308 308 307 306 309 308 305 303 304 303 306 308 306 302 300 298 301 297 293 295 296 295 293 294 298 298 296 296 296 296 293 293 293 289 290 290 293 292 292 292 292 293 292 286 287 289 291 283 279 285 289 291 289 291 291 291 291 291 291 290 291 292 291 291 292
318 319 319 319 320 320 320 311 310 311 310 307 310 313 315 314 314 311 304 292 288 295 301 298 309 303 311 303 306 304 303 298 303 305 308 306 309 303 301 298 299 293 295 295 295 294 295 298 300 297 295 294 295 294 293 294 290 288 289 293 294 294 292 292 291 290 283 282 289 291 284 280 285 289 290 289 289 290 289 289 290 290 290 290 291 290 291 291
319 318 319 319 320 320 311 305 313 311 305 306 313 314 313 314 314 311 295 287 285 297 296 303 303 303 309 305 305 303 292 293 304 305 305 307 305 308 299 295 298 299 299 300 294 291 295 296 296 295 295 293 292 291 294 295 291 286 290 293 294 292 292 290 290 290 286 287 289 289 285 282 283 289 293 290 290 290 289 289 290 290 290 290 290 290 290 290
318 319 319 320 320 318 311 312 310 306 306 311 313 314 314 314 309 309 293 280 279 301 296 298 304 307 307 305 306 302 298 301 297 300 300 304 305 302 300 295 296 296 297 296 288 295 295 292 294 292 292 291 291 292 293 295 291 288 293 293 292 292 291 290 290 286 285 286 283 285 288 284 282 285 290 291 288 289 289 289 290 290 290 290 290 290 290 289
318 319 319 319 320 319 317 314 310 307 311 313 314 315 315 311 308 299 288 279 297 295 308 300 311 306 304 306 302 297 299 297 296 298 302 304 304 301 296 297 297 297 298 297 293 293 296 294 295 296 294 291 292 291 293 296 291 294 293 293 292 291 290 289 284 287 284 282 281 285 288 283 284 284 288 288 288 290 291 291 290 291 291 290 290 289 290 289
318 319 319 319 319 317 315 315 311 313 312 313 314 313 310 307 300 290 282 278 300 292 299 300 299 297 301 299 298 299 296 296 296 299 300 299 302 302 301 303 299 298 295 296 294 293 296 296 296 295 293 293 290 291 291 294 294 294 293 292 289 286 285 283 282 282 282 279 283 286 288 286 280 283 288 287 289 292 292 290 290 290 289 290 290 289 289 289
318 319 319 319 314 315 314 309 313 312 311 311 313 311 308 303 291 285 280 288 297 294 297 296 294 301 298 297 294 297 295 294 297 297 295 300 297 298 298 296 300 291 287 287 288 290 293 294 294 293 295 293 293 291 292 291 293 294 287 284 286 284 281 281 280 281 277 278 281 288 288 288 281 280 284 291 290 291 294 291 290 290 290 290 289 289 289 289
317 319 320 318 318 318 310 308 314 312 311 311 311 306 302 289 293 284 284 295 288 291 292 290 295 296 297 299 296 295 294 294 295 296 295 293 292 294 294 292 291 286 285 286 287 288 287 288 291 294 296 295 289 290 289 287 290 291 288 288 284 279 277 275 277 276 278 279 282 281 285 283 285 288 287 289 290 290 292 294 292 291 290 289 289 289 289 289
317 318 319 319 317 315 316 316 316 313 312 311 308 304 295 288 282 290 289 291 287 294 292 297 294 296 297 296 293 295 296 291 295 295 295 293 292 292 293 293 293 290 283 286 288 286 286 287 292 292 293 295 295 291 284 285 288 289 288 285 283 277 275 270 271 273 274 278 280 282 284 283 283 286 295 293 290 289 289 291 292 292 290 290 289 288 288 288
318 318 316 317 318 317 317 315 315 313 311 309 305 299 292 285 285 296 293 293 292 294 296 293 295 294 296 293 293 296 290 294 294 293 295 290 290 288 291 294 294 293 287 283 286 285 280 282 288 291 288 294 296 296 294 290 288 290 289 290 287 283 276 273 275 275 275 274 277 280 282 278 281 285 285 287 287 288 288 290 289 290 290 289 288 288 287 287
318 317 317 317 317 318 316 315 314 314 311 306 300 295 286 285 290 289 291 293 292 295 293 295 294 292 291 291 293 296 294 289 294 293 291 290 287 287 288 292 295 294 289 287 285 283 287 287 287 296 292 295 294 296 293 289 289 287 289 289 283 286 282 279 276 276 274 273 275 276 279 280 286 286 286 286 286 288 288 289 289 289 288 288 287 287 287 287
316 315 317 314 314 317 317 315 314 314 310 302 295 289 287 290 287 293 291 299 295 292 292 294 291 288 286 287 290 293 295 291 292 291 288 290 290 289 291 291 293 296 293 289 287 283 285 283 288 292 292 295 295 295 294 295 286 287 289 285 287 287 288 280 278 280 277 275 276 275 279 280 285 286 287 286 287 287 287 287 288 288 287 287 287 287 287 287
312 314 309 313 314 318 317 315 314 312 308 300 294 287 292 293 297 295 299 298 296 296 293 289 288 289 287 287 287 290 292 293 291 290 286 290 289 292 291 294 298 296 298 296 289 291 286 285 287 288 289 290 289 291 292 292 292 287 283 288 290 290 288 284 278 275 274 274 276 279 279 279 281 279 285 286 285 286 286 286 287 287 287 287 287 287 287 287
312 311 311 311 315 318 318 315 314 310 304 298 290 292 296 293 300 299 299 296 296 298 292 292 289 293 288 289 288 290 291 291 289 289 285 291 286 296 294 293 297 298 299 300 294 291 292 284 285 286 288 289 291 293 292 293 293 290 286 290 290 283 282 283 278 277 274 273 271 276 279 280 282 284 282 283 285 286 286 287 286 286 286 287 287 287 286 286
312 310 303 311 317 318 317 315 312 306 299 293 290 290 296 296 302 300 299 299 298 296 293 293 291 292 291 289 291 292 292 288 289 288 286 288 286 293 295 297 293 298 300 300 295 293 291 286 283 285 287 289 289 289 285 287 292 290 291 289 288 284 280 280 283 276 279 273 274 273 276 277 283 286 285 288 288 289 287 286 287 288 288 288 288 287 287 286
308 303 302 314 317 317 315 313 306 302 297 289 291 291 299 295 300 303 302 299 296 296 293 293 294 291 293 292 292 289 290 290 290 289 289 288 290 294 294 298 295 296 299 301 297 298 290 290 280 284 286 289 284 286 287 290 287 285 284 284 286 283 285 282 282 281 277 271 272 271 274 277 281 288 289 290 290 290 289 289 289 289 289 289 289 288 288 287
308 303 302 313 315 316 313 306 299 294 294 296 296 293 297 296 300 302 304 303 299 300 296 295 295 292 293 292 291 294 291 292 291 289 289 288 291 286 293 296 297 295 296 297 297 294 289 287 283 282 283 282 284 287 289 290 291 288 288 287 289 286 282 279 280 283 277 278 276 272 279 277 283 289 289 291 292 291 290 291 290 290 289 289 289 289 288 288
303 296 300 313 315 314 306 295 296 299 295 290 290 294 294 303 299 300 302 303 301 298 300 298 298 297 294 294 293 292 292 290 291 290 288 289 292 292 293 295 297 298 294 290 294 296 295 286 284 281 281 285 287 289 289 289 289 289 289 285 288 287 286 281 278 277 279 281 275 275 273 278 284 287 285 284 287 290 291 291 289 290 290 290 290 290 289 289
300 299 305 311 314 311 302 295 297 295 294 294 299 298 300 299 299 301 300 301 298 300 298 297 297 296 297 296 294 293 293 288 291 290 288 290 291 294 294 294 296 296 296 289 295 292 294 288 285 284 284 285 288 288 290 289 291 288 288 286 286 287 287 286 282 278 283 276 278 276 277 276 283 284 282 280 280 283 287 288 289 289 290 290 290 289 289 288
301 298 301 308 313 310 299 290 289 291 293 296 296 296 300 299 298 298 298 300 298 297 297 296 297 299 297 298 296 293 295 288 292 292 289 290 289 292 291 294 297 292 295 292 293 296 290 287 288 284 282 282 283 286 286 288 288 284 285 289 289 287 288 285 284 283 280 281 281 280 278 277 286 284 285 285 286 287 288 288 289 289 289 290 290 290 289 288
299 301 300 302 308 307 296 298 293 291 291 293 293 293 295 296 300 301 300 298 301 299 297 296 299 298 296 298 297 297 295 295 287 293 292 288 291 290 291 294 295 294 295 296 297 300 292 287 288 283 281 278 277 276 279 281 284 284 280 283 288 289 288 286 284 283 282 280 282 279 282 279 283 285 287 285 284 287 288 289 289 289 290 290 290 290 289 288
296 291 297 298 302 300 300 299 299 295 292 293 292 293 295 293 298 301 302 300 302 300 300 297 297 299 296 295 293 294 293 294 292 289 291 288 288 288 289 291 292 294 294 296 296 298 288 287 289 288 286 284 286 283 285 285 283 283 284 287 288 290 291 290 288 284 283 282 282 286 284 282 284 285 285 286 282 288 288 286 288 289 288 288 289 290 289 289
297 293 291 289 297 298 295 298 296 296 292 295 288 293 292 294 296 297 302 296 300 300 297 297 297 295 294 296 294 294 295 293 293 289 290 289 285 285 289 290 291 291 294 294 295 292 287 287 288 289 288 290 286 284 286 288 285 286 286 286 288 288 289 287 286 285 288 283 281 286 284 285 285 284 285 285 285 286 287 287 287 287 288 290 289 288 290 287
291 294 298 298 293 288 292 292 297 296 296 295 291 295 291 292 294 291 298 300 300 301 295 294 297 298 297 295 295 289 292 292 291 290 289 287 286 288 287 289 289 291 292 292 293 291 287 287 289 288 288 290 289 286 285 286 287 287 288 287 286 288 288 286 287 289 287 285 284 286 286 286 286 287 288 287 288 290 290 289 290 289 289 287 287 287 287 287
294 291 291 297 291 293 295 296 297 296 295 295 293 294 292 292 291 295 295 295 297 296 299 290 293 296 297 297 295 290 292 288 288 292 289 288 288 286 286 287 289 289 289 288 290 288 289 287 288 288 288 289 289 288 286 286 285 286 286 286 288 287 287 288 288 290 289 288 290 285 286 287 286 289 289 290 291 292 290 289 288 288 289 288 288 287 287 287
288 291 287 292 292 289 290 294 295 295 293 295 290 292 292 292 291 294 295 295 291 294 299 295 295 295 295 296 295 291 293 295 293 289 291 290 287 287 288 289 286 286 288 288 289 288 290 287 290 286 286 286 288 288 286 286 285 286 287 286 286 287 287 288 289 290 290 288 288 284 286 286 288 290 291 291 290 290 289 289 289 290 289 288 288 287 287 287
293 291 294 289 287 287 290 290 293 293 291 293 291 293 293 293 292 295 295 299 296 293 296 294 297 294 293 295 294 294 297 296 295 293 294 294 289 291 291 288 290 286 287 287 287 288 289 285 285 287 284 285 287 286 287 286 285 285 286 286 286 285 284 287 286 289 288 287 288 285 285 286 288 290 290 290 291 291 289 289 289 289 289 287 287 287 286 287
293 294 294 292 285 291 288 287 290 292 288 293 293 294 293 293 295 295 291 297 298 299 298 298 297 296 291 293 293 295 299 298 298 295 296 299 297 294 297 292 293 289 287 288 288 287 287 285 284 284 283 284 288 287 286 285 285 283 284 287 288 286 288 288 289 290 290 291 287 285 287 288 290 289 289 289 289 290 289 289 288 287 287 287 287 287 287 287
Wind_Speed
2 1 1 1 2 2 3 4 5 5 6 6 7 7 8 9 9 10 10 11 12 12 13 14 14 14 13 14 14 14 13 2 3 1 2 2 1 5 6 5 6 6 3 3 5 4 6 3 1 2 4 2 2 1 1 2 1 2 2 2 4 1 3 1 1 1 4 5 2 1 1 4 2 1 1 1 2 1 5 7 2 9 8 4 2 4 5 5
1 1 0 1 1 2 3 4 4 5 5 6 6 7 8 8 9 10 10 12 12 12 13 13 14 14 14 13 13 14 8 2 2 4 1 1 3 4 4 4 3 3 3 2 4 4 4 6 4 4 3 1 1 0 1 1 1 3 1 4 2 1 1 1 2 3 3 2 4 2 2 3 1 3 1 1 2 1 3 3 3 7 4 6 7 6 6 6
2 1 1 0 1 2 3 3 3 4 4 5 6 7 8 9 9 10 11 11 12 12 13 14 14 14 13 13 13 12 5 1 1 2 1 1 4 4 2 1 2 2 2 0 2 2 0 4 4 2 2 1 1 0 2 1 2 0 3 4 0 2 1 3 3 3 2 5 4 4 0 3 2 2 1 1 1 2 2 5 2 3 4 3 4 5 5 7
3 2 2 1 1 1 2 3 3 3 4 6 6 7 7 9 9 10 11 12 12 13 13 14 14 14 13 12 10 7 1 2 2 1 1 3 4 3 2 2 1 0 0 2 2 4 4 4 4 1 1 1 1 2 3 2 3 2 4 1 2 2 2 1 4 3 4 3 3 3 1 1 1 2 1 1 1 1 1 2 3 7 7 5 4 4 5 7
3 3 2 2 1 1 2 3 3 3 4 5 6 7 7 8 9 10 11 12 13 13 14 14 14 14 14 12 11 1 1 3 1 1 1 4 4 3 3 3 2 1 1 3 5 2 2 2 1 3 1 1 2 2 1 2 1 1 1 2 3 2 4 1 4 3 4 3 3 1 1 2 0 1 1 2 2 4 4 2 5 6 6 6 6 5 6 7
4 4 3 3 2 2 2 2 3 2 3 4 5 5 7 8 9 11 11 12 13 13 14 14 15 15 15 15 2 2 1 1 2 1 3 4 5 4 4 4 5 2 3 6 2 5 4 5 2 2 1 1 0 3 2 0 1 1 1 1 3 1 3 2 1 1 3 1 1 0 1 1 1 1 2 3 4 2 3 5 6 6 6 6 6 6 6 5
5 4 3 3 3 3 3 2 2 3 3 4 5 5 6 7 8 10 11 12 13 14 14 15 14 16 17 10 2 1 1 1 2 3 2 5 6 5 4 5 5 4 3 3 5 3 3 3 2 1 1 3 1 3 0 0 2 4 0 1 2 2 3 3 4 4 2 7 1 1 0 0 0 1 1 1 2 6 5 6 6 6 6 7 8 6 6 5
5 5 4 4 4 4 3 2 3 3 3 4 4 5 6 7 9 10 11 12 13 13 14 15 14 15 15 3 1 1 1 2 1 3 3 3 5 5 4 4 1 3 3 1 1 2 2 4 2 0 4 2 0 1 1 3 3 2 1 1 1 1 1 3 5 3 2 2 3 2 1 3 3 2 1 2 4 5 6 5 6 6 7 7 8 7 6 6
6 5 4 4 4 4 4 3 3 3 4 4 4 5 6 7 9 10 11 12 13 14 14 14 14 14 8 0 1 1 1 1 4 4 3 0 4 3 5 0 2 2 2 3 1 1 2 1 3 1 0 1 0 4 1 2 2 1 0 0 1 1 1 3 4 4 5 1 2 0 5 5 5 2 2 4 5 5 6 6 6 7 7 7 6 6 5 5
7 6 6 5 6 5 4 4 4 4 4 4 5 5 6 8 9 10 11 12 12 13 13 13 14 14 3 0 2 1 1 0 1 3 3 3 2 2 5 3 3 3 2 2 4 4 2 0 1 1 2 1 1 1 0 3 1 2 0 0 1 5 3 2 6 5 6 4 4 4 2 3 2 6 5 1 5 5 6 6 5 7 7 6 5 5 5 6
8 8 7 6 7 6 3 3 3 4 4 4 5 5 6 8 9 10 11 12 13 13 12 12 11 10 1 1 2 2 1 3 1 2 2 0 3 5 1 3 3 2 2 3 3 1 2 1 1 0 2 1 1 1 2 1 1 2 1 4 4 5 4 4 3 6 3 2 5 6 5 2 2 1 6 7 7 6 8 6 5 6 5 6 6 6 4 6
10 10 9 8 8 8 7 4 4 4 4 5 5 5 6 7 9 10 11 12 12 11 11 10 10 1 1 2 3 2 1 2 2 2 0 2 4 4 2 2 2 2 2 2 1 2 1 1 3 2 1 0 1 1 1 1 1 0 1 3 5 4 4 4 7 6 5 2 4 5 1 4 1 6 1 9 7 5 7 6 6 6 6 5 5 5 4 4
11 11 10 9 10 9 9 4 5 5 5 5 5 6 6 7 9 10 11 12 10 11 11 8 6 1 0 1 4 3 3 3 3 3 2 4 3 1 1 1 1 1 3 2 0 1 2 3 3 3 0 2 1 0 1 1 0 1 1 2 5 4 5 7 3 4 6 2 6 5 2 6 5 3 3 6 8 6 6 5 5 5 6 5 5 5 4 4
9 10 9 8 9 10 8 4 2 5 6 6 5 5 7 8 9 10 11 12 13 11 8 8 1 1 1 3 1 3 3 4 1 3 1 1 5 1 2 1 1 0 1 4 1 1 0 2 3 2 0 2 0 0 1 1 2 2 1 2 2 3 4 4 1 5 8 1 4 3 2 8 4 2 4 6 6 10 8 6 6 6 6 5 5 5 4 3
9 8 10 8 7 8 7 7 4 4 5 6 6 6 7 8 10 11 10 10 10 10 10 6 1 0 1 3 1 4 4 1 0 2 3 2 2 1 0 2 3 3 2 3 0 1 1 2 2 2 0 1 2 2 2 1 0 1 2 3 2 3 5 4 3 8 8 0 2 5 2 7 6 6 6 6 5 6 8 7 7 7 6 7 5 5 5 4
10 9 10 10 8 8 7 6 5 4 4 6 7 6 7 10 10 11 10 9 11 9 4 0 0 1 2 3 1 2 1 1 2 3 1 2 2 1 4 3 1 1 2 1 1 1 3 3 2 1 0 2 2 3 2 3 2 1 4 3 2 1 4 2 1 0 5 3 0 6 4 2 4 5 6 6 7 6 7 7 8 9 9 8 7 6 5 5
11 11 10 10 9 9 8 7 7 6 4 6 6 6 9 9 8 10 12 10 4 2 0 0 1 1 1 1 2 1 3 3 2 0 0 1 2 5 4 2 1 1 3 2 4 3 3 2 1 2 1 2 2 4 3 2 3 3 0 4 3 3 1 2 3 3 1 6 4 4 3 6 3 3 7 6 9 8 6 8 8 8 7 7 7 7 7 5
11 11 10 9 10 10 8 8 8 7 4 6 6 5 6 7 8 8 5 1 1 1 2 2 2 1 5 2 3 4 1 3 2 2 2 1 1 3 3 1 1 3 2 2 3 1 1 1 1 4 1 0 1 1 4 6 6 3 1 1 5 1 4 5 1 2 3 0 3 3 5 8 9 4 5 8 6 7 7 8 8 8 7 7 7 7 6 5
11 11 10 9 9 10 10 8 8 7 5 6 8 9 10 8 2 0 1 1 1 1 1 2 4 4 3 6 1 4 2 3 3 3 1 2 0 0 1 2 5 5 1 2 2 3 1 3 4 2 3 2 6 8 9 9 6 5 5 5 2 1 3 1 3 2 8 5 5 5 7 9 9 7 5 4 7 10 10 4 4 6 6 7 7 6 6 6
11 11 11 10 9 11 11 9 9 6 5 4 3 2 1 1 1 0 1 1 4 7 2 5 7 1 3 3 4 0 1 4 4 2 1 2 3 2 1 1 1 2 4 3 0 3 4 4 5 7 8 9 6 9 9 8 6 2 1 2 4 4 4 4 1 2 2 0 6 7 7 5 6 7 5 9 6 6 5 5 8 7 7 7 6 6 7 6
11 11 11 9 9 8 10 9 7 6 5 2 4 0 3 6 6 5 4 6 5 6 4 3 11 6 1 4 3 7 5 1 1 1 3 0 2 6 2 2 2 2 2 4 6 1 3 5 8 9 9 8 9 8 7 5 4 5 5 3 5 1 5 3 1 1 1 3 2 4 4 6 8 7 7 5 6 10 11 8 8 9 8 7 8 7 7 6
12 12 11 10 9 9 10 9 8 5 4 1 4 3 2 0 0 1 2 3 4 13 10 7 1 4 1 3 5 3 4 3 1 1 1 1 3 6 3 4 4 7 3 2 2 2 5 10 9 10 6 5 5 5 5 9 7 4 4 3 1 5 3 5 1 2 0 1 7 4 4 7 9 9 7 5 11 8 8 9 11 12 9 8 7 8 8 7
13 13 12 11 10 10 13 11 7 6 1 2 4 2 2 0 0 1 1 1 4 4 9 6 6 9 3 1 2 2 4 4 6 5 5 3 3 4 5 4 5 4 2 5 8 4 5 6 11 8 5 5 6 5 4 2 2 3 1 2 6 4 0 5 2 1 2 4 1 2 6 7 7 9 12 3 8 2 2 6 8 10 12 11 12 11 10 8
14 13 13 12 11 12 13 11 6 2 3 3 6 5 1 1 3 2 1 2 3 4 5 7 9 4 8 6 5 6 6 3 5 7 2 5 9 4 3 8 8 3 7 9 10 11 11 3 6 8 7 7 7 4 5 5 7 2 4 3 2 2 4 7 4 1 1 4 1 3 6 7 8 11 6 2 1 3 2 4 4 1 3 5 5 6 9 11
14 14 13 12 13 11 12 8 4 4 2 4 10 10 9 4 2 2 1 3 2 4 1 1 3 3 4 3 4 6 3 1 5 3 7 10 6 3 5 2 3 8 6 7 7 7 10 8 3 8 7 6 6 5 7 7 7 4 4 8 6 5 5 3 1 2 4 3 2 1 6 4 2 4 6 1 0 2 1 4 5 4 4 6 8 7 5 6
15 15 13 14 12 13 13 5 4 4 6 7 4 5 11 5 3 0 1 1 6 3 3 6 3 4 3 3 4 4 4 5 1 3 9 6 1 4 2 4 4 8 8 5 8 5 6 4 6 4 5 6 7 7 5 7 7 3 5 5 6 7 6 4 2 2 3 5 2 2 5 8 6 6 2 3 4 6 2 4 5 4 5 5 6 6 7 8
16 15 15 14 14 16 9 6 3 8 4 8 7 7 3 4 2 1 1 3 7 5 8 1 1 2 1 6 7 4 3 5 0 4 4 2 8 0 5 5 2 0 3 2 1 7 3 7 8 5 6 8 7 7 5 8 6 5 2 3 5 5 6 5 3 5 5 1 2 1 2 4 9 7 6 7 7 9 7 8 6 6 6 6 5 5 6 7
17 16 16 15 16 19 3 4 9 7 5 1 1 6 2 5 5 1 2 1 6 5 3 2 1 2 1 4 8 9 1 3 4 3 1 1 0 1 2 7 9 8 4 5 12 1 3 5 6 6 6 6 9 6 4 6 6 3 1 5 4 6 3 4 3 2 1 2 8 3 1 2 7 6 2 5 5 8 14 12 11 8 7 7 6 6 6 6
18 18 17 16 16 18 8 2 7 8 3 1 1 5 5 4 2 4 4 4 1 2 3 4 4 1 3 3 2 3 2 3 2 1 3 2 3 2 5 4 3 5 5 9 10 1 1 5 7 9 8 8 3 1 1 9 4 1 2 6 5 5 4 3 2 1 2 1 8 7 6 6 11 4 0 0 3 10 14 12 11 11 11 9 8 6 7 5
19 18 18 17 13 14 10 2 5 2 1 2 5 6 6 4 2 2 3 7 2 2 2 1 2 6 4 10 1 1 3 1 2 0 1 3 1 2 0 0 2 1 2 3 2 3 1 1 3 3 5 4 5 2 2 1 4 5 5 8 6 8 4 2 4 3 3 7 8 9 9 7 8 4 8 7 9 8 3 1 4 5 6 7 7 9 8 8
20 20 19 19 12 8 5 8 10 3 2 3 6 6 5 1 3 4 8 6 4 2 1 1 1 3 10 11 6 3 4 2 1 3 3 0 0 3 1 3 3 2 1 2 4 3 0 1 1 1 3 4 4 4 6 2 4 9 2 4 6 3 5 3 2 2 2 8 4 12 12 12 10 4 6 7 4 3 8 8 10 11 12 10 8 8 9 8
21 22 23 17 10 8 15 12 8 6 4 3 6 6 6 5 4 9 10 5 2 5 8 4 0 5 12 9 7 11 9 1 3 5 9 7 6 8 9 10 7 3 5 7 8 1 3 2 1 2 2 9 3 7 4 5 1 6 7 7 6 3 4 2 2 3 7 9 0 1 2 1 15 8 4 3 7 3 5 7 12 13 11 9 8 9 8 8
23 22 23 16 12 10 11 4 10 7 6 5 6 2 5 7 13 14 9 6 4 5 3 5 7 9 9 7 4 4 2 7 3 4 4 0 5 7 2 3 5 6 6 4 8 2 6 1 2 2 3 4 8 9 2 0 4 7 9 8 7 2 2 4 4 3 5 4 4 0 3 6 2 6 14 13 7 4 4 3 6 12 13 12 11 9 8 7
24 22 16 15 14 11 8 7 9 11 9 5 6 4 2 6 15 13 15 9 2 1 7 3 5 3 8 10 6 10 5 2 8 3 5 4 6 6 6 8 5 5 3 2 9 8 4 4 7 7 5 5 9 11 16 8 10 10 4 12 10 8 5 4 6 6 7 4 1 2 4 7 5 5 3 3 3 3 2 2 4 5 6 6 6 6 7 7
25 21 16 12 13 12 9 8 11 13 10 6 8 11 15 15 10 13 13 10 1 2 3 4 8 7 5 2 0 5 4 1 6 6 6 8 8 7 10 11 12 4 2 3 4 2 14 8 5 11 1 9 12 4 6 6 3 3 2 3 5 9 5 6 5 2 1 1 0 1 6 5 6 1 3 2 3 5 4 5 7 7 7 8 8 9 9 8
18 14 15 10 14 14 13 10 12 14 12 9 12 14 19 16 13 7 5 6 2 5 5 7 3 4 3 5 1 8 2 4 6 5 3 6 2 6 3 2 9 14 11 11 4 4 2 6 1 3 4 10 11 3 4 8 7 4 5 8 9 4 4 1 2 0 1 2 8 3 5 5 6 2 0 1 1 2 3 3 5 6 8 8 9 8 8 9
13 12 9 14 15 14 15 13 13 12 11 12 16 18 15 8 2 4 3 13 7 13 9 11 7 9 7 7 5 7 4 5 4 7 5 3 5 7 4 8 10 12 12 9 4 3 8 3 1 4 4 1 0 0 1 2 4 7 5 9 3 2 3 3 4 2 0 5 6 6 8 4 2 7 0 1 3 3 2 3 5 5 7 10 10 10 10 10
11 7 12 15 17 17 17 16 15 11 11 12 14 11 0 7 2 4 1 6 5 10 5 10 3 10 6 8 7 8 4 9 7 5 4 7 6 7 12 3 8 14 17 9 6 2 5 3 1 1 1 3 2 2 1 1 1 8 7 3 9 5 3 2 3 5 2 5 4 4 6 7 11 9 2 6 8 10 9 6 6 9 9 10 9 9 7 6
7 6 5 15 8 17 19 19 18 16 13 12 13 15 7 9 2 1 4 7 6 9 12 10 6 5 6 8 6 7 10 9 8 9 7 4 4 5 11 9 6 14 14 13 8 3 1 5 1 2 2 1 1 3 8 6 1 1 2 1 1 2 1 7 8 3 4 5 0 7 3 9 8 6 13 14 16 15 12 9 12 14 14 12 11 11 11 11
6 4 11 7 18 15 15 17 13 15 14 19 13 13 1 8 7 4 5 8 5 10 8 8 5 6 8 7 11 9 7 6 11 8 7 3 8 2 6 9 6 7 14 15 6 2 3 0 3 1 3 2 2 4 10 12 11 2 2 3 0 0 2 3 1 5 5 3 5 2 6 6 7 7 13 15 15 14 16 18 14 12 12 11 11 12 12 11
2 2 2 7 16 18 17 11 11 15 15 9 9 11 7 7 8 8 9 8 2 3 4 8 10 10 8 7 9 7 6 8 6 8 7 4 8 1 6 9 6 6 5 7 9 0 2 0 5 1 0 4 6 4 4 4 4 5 9 12 14 11 5 5 9 1 2 2 5 4 13 4 5 1 5 9 11 13 15 17 15 12 11 11 10 10 11 11
4 5 2 8 18 22 17 16 8 7 8 14 17 14 9 1 2 9 5 7 3 3 2 2 7 9 8 9 7 8 8 7 9 7 5 9 6 4 1 3 7 11 12 9 13 4 7 2 6 5 6 8 8 3 1 2 1 3 3 3 3 4 3 4 7 4 0 6 3 2 2 9 4 1 2 5 4 10 15 12 10 9 11 11 10 10 10 11
3 5 4 5 15 23 16 14 13 11 10 12 4 4 5 6 7 5 11 6 6 3 1 2 6 7 3 5 4 7 11 5 12 11 4 7 4 5 4 7 6 9 8 1 6 2 7 3 2 2 0 3 3 2 1 0 2 2 4 4 5 11 9 7 3 5 7 2 3 2 6 6 1 0 2 3 3 4 4 7 10 9 9 9 9 10 10 8
2 1 1 1 14 15 15 13 13 12 13 7 12 12 13 7 9 6 11 12 9 4 8 3 1 6 4 4 5 10 10 4 7 10 3 4 4 2 2 4 9 6 9 8 9 7 4 3 6 2 1 1 1 2 2 1 1 5 6 9 8 1 4 4 1 1 0 9 9 8 16 2 2 2 2 1 2 5 8 6 8 10 7 8 9 8 7 7
2 0 0 2 5 11 14 6 11 13 14 14 14 16 11 9 10 15 12 12 10 5 4 6 7 4 2 3 7 5 10 13 2 9 3 3 4 1 6 3 3 5 0 5 6 10 4 4 8 8 11 9 7 7 9 9 12 4 1 2 8 14 11 4 10 6 10 3 10 5 10 4 2 1 0 0 4 5 3 5 5 5 9 10 7 7 7 8
4 6 3 2 6 5 5 2 8 11 11 11 12 13 15 12 8 12 13 11 14 8 7 1 3 6 4 3 4 7 8 4 6 4 8 5 2 1 2 5 2 2 4 8 11 10 3 3 9 12 11 12 10 1 1 6 5 7 8 12 13 14 16 11 4 2 16 4 8 15 6 3 3 3 3 4 4 9 7 5 7 5 4 5 6 8 9 9
0 8 3 4 1 9 7 2 5 9 12 12 8 7 16 17 7 4 12 8 11 12 5 6 5 8 6 10 12 9 8 7 4 4 10 8 1 1 3 1 3 5 3 4 7 7 3 5 12 12 13 16 4 2 2 10 10 11 10 13 13 13 15 15 15 20 6 4 17 7 8 10 9 6 7 7 5 4 5 5 4 3 6 8 7 5 5 5
5 3 3 2 2 4 11 11 7 10 11 14 7 5 11 14 10 6 5 6 5 12 9 1 7 17 16 18 12 6 7 9 7 11 3 1 6 0 2 2 1 3 1 1 0 4 7 9 11 10 16 15 8 4 3 3 6 6 12 13 13 15 14 19 22 18 9 14 20 8 13 14 8 11 11 9 10 10 10 11 8 5 5 4 5 6 8 8
1 2 2 0 2 3 11 10 12 10 11 15 8 10 10 14 14 12 4 7 6 7 13 8 16 17 15 15 12 9 9 6 10 9 6 8 7 5 3 2 1 2 2 1 1 1 3 9 4 8 15 14 14 9 4 5 4 4 7 12 16 17 21 22 20 19 18 16 16 5 10 13 4 10 8 10 11 9 5 4 5 6 8 7 7 7 8 8
2 1 2 2 1 2 2 3 5 9 11 16 11 13 12 15 18 12 3 7 6 9 7 14 13 13 11 10 13 12 15 19 16 12 6 10 2 3 7 5 4 1 1 5 4 2 6 8 7 4 7 13 14 8 6 7 5 11 12 11 15 18 17 18 18 20 17 15 12 5 8 10 5 6 10 2 3 6 8 8 9 8 8 8 9 9 8 8
1 1 1 2 1 3 1 1 7 11 8 6 11 11 12 15 16 14 11 9 13 10 10 17 16 7 9 10 10 16 17 17 14 11 15 17 15 10 8 4 10 8 5 3 2 1 5 4 3 5 8 12 10 10 11 7 5 10 16 19 20 13 11 14 17 16 14 19 17 6 7 10 3 7 3 4 6 8 9 9 7 6 8 8 8 8 7 8
2 1 1 2 2 2 3 2 4 6 13 10 8 8 7 15 13 11 5 7 12 13 15 19 17 10 5 12 15 21 20 13 10 5 11 10 2 5 11 7 15 13 10 10 4 7 8 5 6 5 9 11 12 7 11 5 4 9 20 29 19 12 17 16 14 14 18 15 11 13 18 4 10 5 6 2 4 4 4 4 4 4 5 8 10 10 10 9
Wind_Direction
173 98 58 35 28 13 4 15 17 15 11 9 10 12 9 4 2 357 354 352 349 347 343 341 341 340 341 343 341 338 346 55 347 24 61 224 269 303 305 287 305 317 358 12 349 30 345 358 330 317 17 41 290 43 289 39 11 59 55 108 37 157 64 235 131 188 178 124 210 44 118 99 136 323 272 37 7 62 65 76 37 51 59 85 93 80 64 38
207 197 50 51 3 354 4 1 11 9 8 7 4 4 7 360 356 354 350 347 347 344 342 340 338 339 341 342 341 340 355 22 100 73 111 338 286 292 302 312 328 356 333 21 8 4 28 349 325 14 36 358 299 122 31 307 69 81 76 80 142 173 293 134 158 96 105 159 177 177 79 116 198 133 271 80 318 354 69 48 63 81 56 52 59 65 62 53
217 226 204 311 2 352 348 356 4 2 357 5 6 358 0 357 351 349 347 345 344 343 341 337 337 337 339 343 337 344 1 18 41 17 281 21 301 292 314 330 359 59 61 317 264 335 295 275 282 18 343 102 339 279 39 294 62 353 109 69 317 205 67 52 103 98 96 151 120 107 329 116 225 135 212 110 238 359 151 143 104 104 131 97 67 69 66 63
222 211 219 251 333 352 341 346 355 353 357 2 357 359 354 351 346 345 345 343 343 341 338 337 334 335 336 337 341 334 59 69 75 251 274 329 314 295 291 327 307 2 74 210 253 306 296 336 332 68 2 70 304 59 48 311 73 298 70 148 198 211 94 322 92 104 83 99 148 132 204 26 316 200 106 170 6 0 200 261 185 153 146 132 105 86 73 63
221 221 223 242 252 322 335 330 336 347 347 349 358 353 351 343 343 343 343 341 341 339 337 335 335 332 334 332 336 353 49 65 248 225 326 342 319 305 301 314 303 359 36 284 331 314 359 321 4 28 91 305 10 24 345 335 102 69 87 197 168 86 79 215 112 109 97 86 81 69 87 255 266 39 112 146 188 227 193 168 108 122 129 131 110 82 70 66
228 233 232 227 243 260 300 304 319 323 335 341 344 350 340 339 343 340 341 340 338 336 335 334 334 335 333 326 353 100 76 73 220 223 333 329 310 307 304 311 317 5 12 352 5 313 12 340 34 28 7 71 228 108 273 84 73 63 318 57 54 128 136 218 88 176 95 56 95 84 218 51 55 300 233 149 191 189 135 136 118 115 109 103 99 94 79 82
230 236 233 229 240 253 264 290 309 316 332 337 337 340 335 336 339 339 336 337 336 334 335 335 335 337 338 332 143 113 125 220 25 258 270 303 297 294 303 312 350 7 22 25 12 50 354 18 50 285 67 60 70 107 197 330 60 105 186 351 2 58 109 149 152 142 117 130 223 206 52 220 77 305 281 115 23 133 121 121 121 111 106 99 91 90 100 97
232 233 234 244 244 251 259 286 298 304 303 314 320 330 333 331 336 335 336 334 333 333 334 337 336 338 349 13 12 354 42 234 267 254 258 272 296 286 322 325 354 8 26 40 14 15 9 31 32 52 62 108 218 111 314 52 12 84 26 340 288 24 168 143 150 159 152 216 236 7 303 237 181 207 7 176 159 125 126 117 113 109 101 95 100 102 93 84
234 235 230 230 242 244 248 260 284 290 291 292 311 321 329 333 334 334 332 333 332 330 333 335 337 337 333 111 122 19 301 233 205 193 185 325 278 268 17 32 355 23 315 320 33 58 88 295 51 51 199 53 273 76 332 82 345 81 166 43 347 300 297 173 157 181 179 210 184 317 259 270 239 239 274 160 170 152 134 119 124 112 101 100 106 107 101 91
232 232 234 226 233 220 235 246 258 269 270 288 302 314 323 332 332 332 331 330 327 329 330 335 340 333 353 92 32 81 258 193 182 167 176 202 259 346 27 23 38 35 33 314 43 52 78 289 114 218 135 86 13 121 133 86 213 162 185 155 255 262 280 217 183 212 193 193 175 186 257 262 294 142 270 150 164 149 127 134 124 114 112 107 102 95 92 88
233 230 238 223 227 228 242 226 252 258 265 280 293 312 322 324 330 329 328 324 324 322 329 334 343 352 49 18 97 221 291 72 176 132 196 215 95 73 25 348 6 65 63 6 65 99 165 89 257 14 44 211 74 337 84 221 145 64 76 353 319 294 268 244 226 226 138 272 181 174 232 281 319 99 232 162 177 160 137 141 126 115 118 113 105 98 88 82
233 236 240 226 221 224 232 247 250 257 270 278 292 307 313 318 324 326 323 320 317 322 325 334 346 348 261 77 150 215 182 254 143 155 68 124 99 156 208 124 78 110 94 61 353 336 85 98 64 58 191 110 34 79 54 260 97 197 79 324 289 335 316 243 213 218 159 246 157 150 357 308 192 229 175 156 155 156 139 145 135 127 127 122 112 105 94 102
236 239 242 237 223 224 236 255 267 266 273 273 285 298 306 314 319 319 319 318 315 316 321 330 338 263 59 320 240 273 288 296 127 101 57 86 100 69 115 111 62 103 120 129 191 297 349 76 84 74 249 109 175 160 208 105 214 57 29 172 335 4 320 271 220 157 149 226 133 116 293 270 261 233 169 157 156 141 129 148 145 141 134 130 120 113 107 99
229 243 244 237 227 223 234 226 262 269 266 272 272 287 304 310 309 311 312 307 308 313 333 324 6 350 89 252 355 271 304 352 95 71 181 157 75 348 4 345 12 64 83 114 200 241 16 62 90 140 75 97 211 284 68 358 38 166 253 80 208 8 280 300 151 165 155 76 148 90 205 280 279 249 207 183 166 152 157 169 158 150 147 137 133 123 119 120
230 223 244 244 228 226 226 235 241 238 259 263 265 273 295 303 306 306 304 304 302 316 314 320 156 66 48 270 322 301 329 75 71 231 179 160 111 41 355 31 57 75 117 131 136 285 102 57 62 48 232 302 71 79 345 15 339 194 40 300 321 156 276 308 28 157 160 226 122 97 276 247 257 230 198 196 179 159 162 174 169 160 157 152 146 136 130 127
233 228 235 248 238 221 220 233 244 248 251 249 257 273 285 293 296 300 294 283 293 310 312 71 31 117 99 280 246 314 36 164 228 207 216 134 140 170 187 134 57 42 48 356 43 0 40 91 84 182 88 23 65 98 44 30 328 345 141 262 267 147 248 354 246 102 151 117 307 170 208 318 298 222 197 196 183 185 172 180 177 169 165 158 150 148 142 123
218 228 228 235 239 223 213 223 234 239 246 243 259 274 277 282 297 305 293 281 289 260 120 38 6 136 224 257 85 191 216 223 300 33 326 37 113 152 104 77 67 58 41 35 25 57 348 70 271 34 60 140 173 104 74 16 321 306 110 211 213 202 289 248 298 302 152 134 209 251 219 234 234 218 193 201 191 188 193 189 184 172 168 163 150 150 152 136
217 223 228 231 232 221 206 216 235 249 255 257 260 269 280 291 314 325 310 228 208 226 247 228 234 33 275 67 208 220 145 124 145 172 71 278 99 133 110 98 101 97 67 42 352 89 303 71 59 195 15 351 113 91 129 227 192 213 158 256 293 316 202 213 132 260 114 332 173 223 234 262 268 262 224 205 191 193 210 197 182 168 163 158 154 157 149 136
220 225 229 227 225 217 203 209 229 250 254 264 277 273 276 291 295 186 21 327 86 16 358 214 138 165 210 220 165 79 79 163 109 74 216 138 264 150 64 96 105 116 120 87 274 119 15 50 22 54 210 193 206 181 183 211 168 185 168 183 171 207 290 214 233 252 168 201 221 201 214 239 255 264 230 230 203 198 213 164 165 170 158 156 158 150 141 135
215 222 229 226 225 220 199 196 228 242 259 295 305 282 46 49 21 317 335 358 225 193 169 184 194 59 51 66 136 289 199 38 94 269 158 259 109 103 75 111 57 58 106 174 170 211 128 134 171 195 209 204 206 197 201 211 189 213 152 139 202 192 279 288 255 235 119 26 232 229 242 248 266 253 233 212 202 217 209 181 180 176 166 165 160 150 139 137
212 222 225 218 217 198 187 196 222 234 232 277 286 264 168 176 129 237 198 239 241 277 269 239 198 182 207 148 145 153 123 284 43 177 198 209 105 109 220 87 79 228 236 176 148 263 88 185 225 214 203 189 203 210 217 235 238 222 229 211 273 185 257 239 259 188 308 175 291 253 254 265 255 266 264 217 181 210 203 196 186 178 174 168 158 148 143 144
208 217 219 207 201 193 190 196 220 230 210 239 292 233 299 241 185 252 122 282 262 234 247 247 317 305 44 138 196 170 87 97 67 217 279 126 192 143 244 130 158 191 227 100 36 125 195 213 223 220 207 201 228 212 193 204 225 226 213 214 203 276 230 287 328 157 258 158 262 289 275 266 273 268 269 189 201 218 209 188 184 167 172 168 165 150 142 145
201 215 214 202 196 195 200 196 214 200 165 247 232 242 254 236 327 226 104 134 279 230 204 223 224 232 236 17 203 142 158 165 182 214 206 143 130 215 154 137 185 207 139 148 165 172 242 274 240 221 195 204 244 235 169 95 93 151 144 158 223 231 84 287 306 321 249 184 230 253 276 269 271 263 258 271 202 192 156 177 180 176 169 175 177 165 157 161
197 208 211 204 200 204 199 193 186 153 209 244 262 226 245 74 52 46 113 236 272 286 191 206 190 182 196 159 206 151 165 225 131 209 220 149 165 174 137 180 186 164 204 197 189 186 199 222 209 182 197 192 222 213 170 183 242 260 186 185 184 208 219 197 256 242 305 316 352 314 301 296 252 264 274 351 23 116 95 96 96 70 149 153 139 148 162 161
194 201 202 203 208 190 185 156 179 219 142 236 260 249 265 269 25 14 59 333 316 275 326 313 149 226 186 31 113 159 232 277 207 164 176 169 160 108 221 165 113 208 204 201 205 224 240 240 108 156 200 213 213 222 204 169 225 259 226 190 204 202 227 244 330 39 15 326 301 134 327 300 280 274 247 236 332 185 251 150 169 152 133 141 155 164 160 154
194 195 196 206 199 175 146 168 209 156 162 219 221 221 238 244 234 64 86 94 278 241 37 220 146 244 98 157 118 166 59 234 210 199 156 210 126 155 119 202 161 210 204 192 205 213 213 197 226 191 175 213 212 211 225 168 204 188 269 190 198 209 208 184 244 67 301 254 292 88 192 277 322 304 236 198 206 230 277 225 208 178 172 169 162 157 158 155
195 194 195 201 184 152 149 220 132 126 161 261 223 237 217 191 122 102 80 5 294 182 165 277 114 256 33 183 145 105 209 242 40 44 123 346 185 7 154 209 119 202 170 158 351 265 135 184 187 184 178 189 199 207 233 168 147 235 246 149 170 187 192 195 138 175 237 222 289 59 117 268 284 248 253 187 201 225 235 238 231 212 196 191 177 167 156 155
196 193 194 193 178 166 194 123 131 166 212 228 235 187 139 136 94 120 90 320 268 89 119 236 212 317 78 166 160 163 222 138 112 233 33 279 88 346 179 199 182 178 191 130 229 262 164 185 164 178 183 179 198 205 197 153 149 218 234 147 108 143 159 126 128 159 215 15 288 183 103 287 260 269 278 164 205 246 240 220 219 213 204 194 184 178 169 155
195 192 191 190 184 184 220 162 167 199 227 305 97 132 108 99 115 112 126 210 202 88 322 93 278 65 80 112 100 83 140 358 154 323 307 41 21 144 203 205 164 180 212 179 225 268 325 173 199 168 170 205 205 344 119 154 142 249 143 81 79 72 65 94 93 101 338 304 250 183 172 216 271 262 255 349 219 244 239 218 210 203 196 187 183 176 168 157
194 194 190 185 176 192 211 243 237 235 122 84 101 111 105 103 111 113 58 242 111 240 86 188 126 188 142 151 150 106 103 358 37 81 37 154 206 21 303 219 114 95 267 337 259 206 238 294 169 104 198 174 128 72 77 253 169 129 74 66 30 36 32 14 70 92 40 253 237 182 195 169 282 262 196 158 211 217 222 97 195 186 183 188 178 166 168 163
194 193 195 184 194 180 152 216 218 133 114 88 107 117 114 45 149 120 214 217 42 124 53 158 176 104 145 143 179 239 83 128 115 143 120 23 14 41 35 29 44 39 37 344 312 323 357 357 128 273 79 99 99 71 358 37 116 124 94 117 58 347 16 31 347 47 133 262 189 186 194 185 219 285 277 242 275 221 178 202 185 184 188 183 171 168 164 160
197 195 194 193 188 152 192 209 166 116 126 124 114 147 160 155 332 194 224 63 279 195 159 169 212 161 176 184 161 170 164 111 173 171 169 183 166 171 201 184 150 160 264 213 251 33 277 208 238 53 236 132 106 88 345 15 7 90 102 87 135 240 43 313 50 247 205 235 243 297 159 17 240 234 260 285 263 277 228 200 183 180 178 172 169 166 161 158
197 196 195 199 185 200 204 111 141 145 123 127 132 192 189 154 209 212 231 153 249 135 242 125 174 182 178 157 207 158 81 165 172 186 114 92 151 234 281 195 209 150 207 211 202 128 272 267 175 211 353 235 142 156 144 87 234 136 140 152 140 144 192 236 251 247 295 293 264 127 151 244 274 277 246 227 231 250 269 235 176 169 169 171 169 160 158 161
199 194 194 196 198 202 180 145 148 135 123 124 146 164 309 203 224 207 208 202 202 356 119 132 135 108 151 176 208 157 173 223 152 202 163 166 167 212 244 248 208 256 91 105 176 176 235 318 243 143 251 181 187 188 186 170 157 196 127 157 187 165 155 217 185 210 220 220 285 263 118 231 132 242 310 300 319 338 349 104 126 131 140 137 134 138 149 162
197 195 197 192 200 202 172 149 136 133 121 143 165 182 189 215 229 208 206 191 126 111 146 139 133 143 205 277 162 183 143 173 179 144 187 154 207 188 191 206 216 149 149 144 236 95 212 226 262 197 168 160 190 207 109 94 108 232 171 63 103 211 143 198 196 178 229 269 281 207 204 190 188 246 300 325 355 25 32 101 114 124 125 130 143 163 176 179
195 198 191 197 199 190 173 159 149 146 154 175 181 192 204 195 212 174 230 131 124 153 141 98 104 145 209 187 327 185 276 125 204 143 228 212 210 200 199 213 185 189 179 192 154 197 92 248 321 68 43 173 195 141 184 150 197 202 114 198 206 187 117 105 352 325 117 37 249 171 293 302 297 323 290 356 25 355 30 111 133 146 150 152 169 177 182 185
200 192 194 198 204 173 171 160 155 157 173 195 195 202 207 218 178 141 190 173 173 130 142 147 221 170 173 201 190 188 218 74 182 154 221 146 275 204 199 220 185 200 214 167 254 188 155 230 330 88 210 315 137 125 77 349 135 98 182 224 111 59 118 143 222 350 88 217 267 158 206 268 123 255 157 129 180 241 250 199 189 164 162 175 185 185 187 187
194 203 215 205 193 169 169 166 155 168 189 201 222 231 80 228 225 154 173 117 110 160 149 188 244 156 197 160 204 177 218 177 189 166 207 185 244 185 197 190 202 197 203 216 198 250 135 257 240 328 160 302 352 100 2 330 20 161 193 203 141 233 242 255 90 243 186 234 269 270 223 238 190 220 133 215 202 210 215 209 184 191 190 194 189 193 189 173
192 186 260 218 160 164 167 164 173 169 192 208 200 219 217 232 184 221 193 168 154 158 191 208 168 214 149 188 174 179 173 186 166 190 148 226 214 194 183 177 220 200 199 188 211 224 61 191 308 331 60 283 36 121 196 204 290 29 61 190 228 103 183 144 199 169 132 252 44 294 121 245 201 209 186 197 201 198 188 197 210 199 192 189 191 188 185 185
201 165 237 142 159 156 151 161 173 179 191 202 190 223 119 207 207 220 243 163 187 173 214 184 178 159 185 197 153 171 215 187 170 197 185 220 189 283 178 193 183 192 191 190 207 138 248 124 223 242 309 106 195 184 208 177 176 176 107 227 294 292 236 117 309 162 173 182 201 238 276 266 257 203 183 199 197 192 182 198 203 197 198 196 189 186 188 189
209 218 284 160 152 148 146 152 177 184 191 215 227 209 191 204 187 213 210 227 180 350 161 188 173 190 171 144 202 162 167 183 183 187 195 233 179 220 221 179 150 163 156 179 204 158 167 139 180 107 92 205 241 235 207 219 222 212 184 197 188 159 159 166 253 98 149 148 239 151 253 276 270 2 220 210 203 188 195 194 196 191 187 191 193 194 187 190
228 231 248 163 150 144 154 167 195 184 192 190 204 196 200 173 178 197 206 234 229 208 351 158 206 184 167 189 149 170 160 182 193 194 228 195 217 195 251 144 164 146 143 171 191 193 146 140 103 186 207 200 218 249 198 152 107 186 191 259 191 228 170 178 216 240 59 238 122 154 281 268 247 239 254 252 238 198 199 193 187 177 185 193 195 188 191 195
224 247 320 201 162 154 165 192 179 183 199 217 177 175 205 216 215 181 193 202 215 143 136 222 198 165 236 152 162 170 165 192 180 205 162 203 236 201 210 177 153 138 114 38 55 286 90 118 141 282 310 301 307 304 334 105 130 301 248 189 159 209 195 208 186 181 183 217 200 261 259 259 276 311 282 257 264 229 170 172 172 180 191 191 181 184 188 189
191 216 233 310 183 167 175 182 189 193 207 187 192 207 193 203 190 180 202 194 196 167 199 170 13 219 190 165 159 182 176 183 216 191 232 186 210 347 325 192 161 168 155 202 159 182 147 231 153 175 277 9 347 332 323 8 194 215 208 205 204 170 217 218 87 147 245 216 174 146 241 242 273 338 343 25 85 127 162 176 170 176 192 185 181 186 187 176
118 333 273 204 237 188 192 187 194 193 196 191 188 206 181 213 211 208 188 197 198 205 163 220 197 129 191 202 195 178 189 195 119 219 181 170 216 0 326 203 274 165 76 157 136 162 165 163 153 199 210 214 208 185 200 206 211 213 234 148 195 203 203 161 233 193 231 226 147 207 241 250 275 2 356 53 109 86 105 157 174 199 176 167 175 179 172 172
164 230 155 271 190 280 282 77 168 188 201 195 199 207 197 203 207 211 200 211 194 196 196 126 141 150 173 143 201 200 203 205 162 189 184 207 191 320 285 312 251 174 206 152 140 144 156 181 193 204 208 224 229 183 248 114 76 187 210 182 210 206 209 208 244 208 227 171 189 225 188 212 236 221 247 202 176 148 157 151 153 147 159 172 171 171 174 182
61 213 156 200 98 230 248 262 168 165 199 182 205 177 203 208 184 197 190 211 190 186 170 170 167 169 200 188 201 211 196 195 210 126 199 176 245 220 320 32 17 11 161 133 149 102 110 192 220 213 224 237 194 166 195 162 178 207 194 209 206 201 201 197 202 224 162 110 246 213 143 206 212 204 215 205 216 182 169 149 146 160 168 169 168 152 154 161
186 256 173 220 193 197 211 229 221 195 192 182 205 174 207 206 196 199 177 230 164 186 167 316 207 202 186 195 189 190 182 201 176 214 113 149 108 78 81 22 70 315 308 113 53 145 157 214 218 189 235 239 234 186 142 164 203 197 203 207 202 204 197 203 217 223 161 209 234 210 179 214 204 201 203 200 182 181 185 187 183 162 130 115 130 157 178 187
64 355 223 14 172 234 216 205 189 204 199 179 202 203 197 200 210 207 185 174 172 191 189 194 206 204 197 188 175 196 176 177 226 211 154 180 161 138 137 42 236 69 87 55 99 197 135 238 203 175 231 240 240 230 191 186 216 222 221 216 212 200 206 208 216 219 211 225 237 180 200 219 175 200 199 206 200 180 169 115 101 131 163 167 174 184 191 188
302 299 286 7 297 228 319 203 169 197 221 181 188 200 195 197 204 196 177 173 186 209 201 219 212 198 194 185 184 194 199 206 203 189 193 132 173 180 189 178 146 5 182 181 167 286 157 239 166 154 226 246 241 235 217 214 195 236 236 231 225 217 212 208 215 223 220 239 243 140 206 235 258 204 192 173 100 87 106 152 171 174 170 173 181 194 195 195
340 54 357 338 281 229 169 224 185 196 222 216 206 188 199 200 210 192 199 189 192 183 183 212 217 182 195 190 190 213 214 211 215 194 178 164 184 198 149 236 140 150 173 156 150 196 162 269 63 150 219 252 240 211 224 215 220 242 250 239 227 204 206 213 219 216 203 218 214 148 222 228 224 230 184 111 143 144 153 164 162 176 185 180 185 198 199 207
90 190 68 326 297 247 191 203 203 191 220 207 204 213 201 206 205 177 221 218 212 203 189 202 212 187 180 192 207 218 218 214 213 156 174 191 149 150 192 153 162 159 170 192 158 162 185 161 165 163 216 243 248 166 212 184 226 266 247 238 217 204 211 216 224 216 216 209 206 210 228 152 178 175 156 213 139 137 131 166 193 208 194 186 191 198 206 211